Location: Fatih
(36.9439°N, 30.6525°E)
Time: 00:25:46
(UTC+00:00)

Daily predictions for brighter satellites

Satellite Brightness Start Highest point End
(mag) Time Altitude Azimuth Time Altitude Azimuth Time Altitude Azimuth
Lacrosse 5 4.4 01:51:27 17° ENE 01:51:27 17° ENE 01:52:39 10° NE
CENTAUR R/B 4.0 01:53:25 35° N 01:56:07 45° NE 02:04:23 10° ESE
Cosmos 2322 Rocket 3.8 01:56:54 29° ESE 01:57:30 30° ESE 02:02:22 10° NE
Cosmos 2263 Rocket 3.8 02:00:45 30° NE 02:01:10 30° ENE 02:06:06 10° ESE
NOSS 3-2 (A) 4.1 02:03:46 79° E 02:03:46 79° E 02:11:54 10° SE
CZ-3A R/B 4.1 02:03:02 35° S 02:03:59 36° SSE 02:23:36 10° ESE
ATLAS 2AS CENTAUR R/B 3.2 02:30:36 56° NNW 02:30:36 56° NNW 02:37:42 10° NNE
Cosmos 2341 Rocket 4.4 02:23:58 10° N 02:30:07 60° E 02:36:13 10° SSE
Meteor 1-21 Rocket 4.4 02:32:27 73° SE 02:32:27 73° SE 02:37:49 10° S
CZ-3 R/B 3.6 02:24:31 40° WSW 02:33:26 61° SSW 02:41:50 10° ESE
Cosmos 2058 Rocket 4.4 02:33:32 10° SSE 02:37:34 37° E 02:41:36 10° NNE
SL-16 R/B 2.1 02:41:07 84° NE 02:41:07 84° NE 02:46:40 10° NNE
ALOS 3.7 02:37:16 10° NNE 02:41:35 36° E 02:45:51 10° SSE
Cosmos 2360 Rocket 3.7 02:36:32 10° SSE 02:41:37 35° ESE 02:46:42 10° NE
Okean O Rocket 4.4 02:39:38 10° NE 02:42:38 18° E 02:45:35 10° SE
USA 238 DEB 4.0 02:44:42 51° SW 02:44:42 51° SW 02:51:13 10° S
USA 238 4.0 02:44:45 52° SW 02:44:45 52° SW 02:51:20 10° S
Cosmos 1980 Rocket 4.4 02:52:23 11° N 02:52:23 11° N 02:52:42 10° N
Gbstr 26 Del rocket 4.5 02:49:02 49° NW 02:49:20 49° NNW 02:56:51 10° NE
COSMO-SKYMED 1 3.8 02:45:57 10° SE 02:50:00 40° ENE 02:53:07 16° N
USA 32 4.4 02:45:11 10° N 02:50:24 64° E 02:55:36 10° SSE
STARLINK 1042 4.3 02:53:02 51° ENE 02:53:02 51° ENE 02:56:14 10° NE
STARLINK 1056 4.0 02:57:52 58° ENE 02:57:52 58° ENE 03:01:16 10° NE
Cosmos 1295 Rocket 4.3 02:57:21 60° W 02:57:27 60° W 03:03:24 10° S
Cosmos 1680 Rocket 4.4 02:59:41 35° NNW 02:59:41 35° NNW 03:02:57 10° N
STARLINK 1054 3.8 03:02:36 66° NE 03:02:36 66° NE 03:06:12 10° NE
Meteor 1-16 Rocket 4.2 02:57:28 10° SSW 03:03:19 65° W 03:09:07 10° N
SJ-12 4.2 02:59:38 10° NNE 03:03:42 67° E 03:07:45 10° S
Meteor 2-10 4.0 03:06:31 58° WNW 03:06:31 58° WNW 03:11:43 10° N
STARLINK 1062 3.6 03:07:21 72° NNE 03:07:21 72° NNE 03:11:09 10° NE
Genesis I 3.6 03:08:55 50° S 03:08:55 50° S 03:11:50 10° SSE
Cosmos 1371 Rocket 4.3 03:04:49 16° N 03:09:06 66° ENE 03:14:24 10° SSE
STARLINK 1053 3.5 03:12:12 72° NNW 03:12:12 72° NNW 03:16:12 10° NE
Cosmos 2112 Rocket 4.4 03:17:26 41° NW 03:17:26 41° NW 03:21:59 10° N
STARLINK 1061 3.5 03:16:59 67° NW 03:17:02 67° NW 03:21:10 10° NE
Cosmos 2366 rocket 4.1 03:11:46 10° N 03:18:10 83° E 03:24:30 10° S
METEOR-M 4.1 03:13:50 10° NNE 03:19:13 88° ESE 03:24:33 10° SSW
STARLINK 1067 3.6 03:21:45 59° WNW 03:22:00 60° NW 03:26:06 10° NE
ADEOS Rocket 4.5 03:19:45 10° SE 03:24:33 32° ENE 03:29:34 10° N
STARLINK 1058 3.7 03:26:29 51° WNW 03:26:56 55° NW 03:31:01 10° NE
Cosmos 1328 3.8 03:29:04 49° WNW 03:29:26 51° W 03:33:15 10° S
ATLAS 3B R/B 2.6 03:24:25 19° NW 03:29:36 81° WSW 03:36:37 10° SSE
Lacrosse 5 2.8 03:30:41 28° NW 03:30:54 28° NW 03:35:17 10° NNE
STARLINK 1043 3.8 03:31:16 45° WNW 03:31:56 50° NW 03:35:58 10° NE
Abrixas rocket 4.0 03:34:14 18° SSW 03:34:14 18° SSW 03:35:40 10° S
PAYLOAD B 4.2 03:28:05 10° NNE 03:33:44 89° ESE 03:39:20 10° SSW
Cosmos 1624 Rocket 3.9 03:30:57 11° NNW 03:36:01 80° WSW 03:41:12 10° SSE
NOSS 3-2 (C) 4.5 03:32:29 24° WNW 03:36:51 42° WSW 03:44:44 10° S
STARLINK 1065 3.9 03:36:02 39° WNW 03:36:54 45° NW 03:40:54 10° NE
Alouette 2 Rocket 4.3 03:33:00 10° S 03:37:30 52° E 03:41:04 10° NNE
SKYMED 2 3.6 03:33:44 10° S 03:37:58 54° W 03:41:43 13° NNW
Cosmos 1953 Rocket 4.1 03:37:36 34° W 03:37:59 35° W 03:41:56 10° SSW
Cosmos 1174 4.5 03:35:19 10° SSW 03:39:34 54° ESE 03:43:02 10° NE
Cosmos 2322 Rocket 2.8 03:38:51 24° WSW 03:41:23 34° WNW 03:46:34 10° N
RESURS DK-1 3.0 03:41:24 33° WNW 03:41:40 33° WNW 03:45:28 10° N
STARLINK 1063 4.0 03:40:47 34° WNW 03:41:53 42° NW 03:45:50 10° NE
Cosmos 1812 Rocket 4.3 03:38:08 10° S 03:42:24 56° E 03:46:44 10° NNE
USA 215 4.2 03:37:32 10° ESE 03:43:34 42° NE 03:49:36 10° NNW
Cosmos 2263 Rocket 2.8 03:42:30 23° WNW 03:45:04 35° WSW 03:50:08 10° SSW
STARLINK 1064 4.2 03:45:34 30° WNW 03:46:52 38° NW 03:50:47 10° NE
CENTAUR R/B 3.5 03:40:39 17° NW 03:47:02 48° WSW 03:55:16 10° S
SL-8 Rocket 4.3 03:44:45 10° NNW 03:50:27 41° W 03:56:08 10° SSW
STARLINK 1041 4.3 03:50:22 26° WNW 03:51:53 35° NW 03:55:44 10° NNE
Cosmos 2056 Rocket 3.6 03:46:55 10° NNW 03:52:16 58° WSW 03:57:32 10° S
Cosmos 1703 4.2 03:52:22 25° WNW 03:52:51 26° W 03:56:07 10° SSW
Meteor 1-11 4.3 03:47:46 10° NNW 03:53:13 52° W 03:58:43 10° S
CZ-4B DEB 4.4 03:50:16 10° N 03:55:35 50° WNW 04:00:52 10° SW
Cosmos 1844 Rocket 3.4 03:50:25 10° NNW 03:55:57 55° ENE 04:01:29 10° SE
FALCON 9 DEB 3.2 03:53:50 22° NW 03:55:59 80° NE 03:59:29 10° SE
STARLINK 1038 4.4 03:55:08 23° WNW 03:56:52 33° NW 04:00:39 10° NNE
Cosmos 482 Debris 2.2 04:02:52 22° SW 04:03:58 81° NW 04:05:46 10° NE
Cosmos 2333 Rocket 2.8 04:00:07 10° S 04:05:48 64° ESE 04:11:30 10° NNE
FENGYUN 3A 4.4 04:09:56 10° N 04:14:30 29° WNW 04:19:05 10° SW
Cosmos 1340 Rocket 2.7 04:12:15 10° SSW 04:16:07 61° W 04:19:59 10° N
Cosmos 1076 Rocket 3.6 04:13:22 10° N 04:17:45 89° E 04:22:06 10° S
Cosmos 1461 4.0 04:14:03 10° S 04:17:46 46° ESE 04:21:35 10° NE
ALOS 3.5 04:15:20 10° NNW 04:18:43 20° WNW 04:22:05 10° WSW
Okean O Rocket 2.1 04:15:00 10° N 04:19:04 36° WNW 04:23:05 10° SW
BREEZE-M DEB (TANK) 4.2 04:16:40 10° WSW 04:20:03 66° NNW 04:29:48 10° NE
STARLINK-60 4.3 04:18:36 13° WNW 04:20:56 26° SW 04:23:48 10° S
ATLAS 2AS CENTAUR R/B 4.5 04:18:05 11° WNW 04:22:34 17° NNW 04:27:23 10° N
Lacrosse 5 rocket 3.7 04:19:27 10° NNW 04:22:35 18° NNE 04:25:37 10° ENE
STARLINK-29 3.3 04:20:47 11° NW 04:24:10 63° SW 04:27:38 10° SE
Cosmos 1821 Rocket 3.9 04:18:42 10° N 04:24:48 74° W 04:30:52 10° S
Nadezhda 3 Rocket 4.1 04:19:04 10° SSW 04:25:03 55° W 04:31:08 10° N
Hubble Space Telescope 3.6 04:23:33 10° S 04:25:08 12° SSE 04:26:43 10° SE
Cosmos 2360 Rocket 3.0 04:20:40 10° WSW 04:25:35 30° WNW 04:30:31 10° N
SL-16 R/B 3.8 04:23:07 10° W 04:25:49 13° NW 04:28:31 10° NNW
COSMO-SKYMED 1 4.2 04:23:46 10° SW 04:26:18 15° W 04:28:51 10° WNW
STARLINK-52 3.2 04:23:26 10° NW 04:26:56 68° SW 04:30:24 10° SE
Cosmos 2219 Rocket 2.2 04:22:17 10° SSW 04:27:56 86° WNW 04:33:40 10° NNE
Envisat 3.6 04:23:57 10° NNE 04:28:59 63° E 04:34:00 10° S
AQUARIUS 4.1 04:24:46 10° N 04:29:16 81° WNW 04:33:45 10° SSW
Cosmos 1300 3.8 04:26:55 10° SW 04:30:00 23° WNW 04:33:07 10° NNW
Okean-O 3.8 04:26:01 10° NNE 04:30:19 48° E 04:34:35 10° S
Cosmos 2333 4.4 04:25:31 10° SW 04:31:09 55° WNW 04:36:50 10° NNE
Cosmos 2151 4.3 04:27:17 10° N 04:31:25 44° E 04:35:31 10° SSE
Cosmos 2322 4.0 04:26:56 10° SW 04:32:21 46° WNW 04:37:47 10° N
Cosmos 1452 Rocket 3.5 04:29:04 10° NNW 04:34:18 69° WSW 04:39:30 10° S
YAOGAN 6 3.4 04:31:38 10° NNE 04:35:04 54° E 04:38:29 10° S
Feng Yun 1-1 Rocket 4.4 04:31:13 10° NNE 04:37:08 87° WNW 04:42:53 10° SSW
Cosmos 2084 Rocket 3.9 04:37:10 10° WSW 04:41:17 40° NW 04:45:28 10° NNE
CZ-4B R/B 3.9 04:36:51 10° N 04:41:33 30° WNW 04:46:09 10° SW
